User: anonymous
Location: Unspecified
(0.0000°N, 0.0000°E)
Time: 04:14:37
(UTC+00:00)
Language:

Tiros 10 - Orbit

View from above orbital plane
View from above orbital plane
View from above satellite
View from above satellite

Ground track
Ground track

The orbit data is extracted from the following two-line orbital elements,

1 01430U 65051A   14242.66122502  .00000077  00000-0  36505-4 0  6727
2 01430 098.0786 076.3278 0058105 109.4528 251.2951 14.39913454576083
Epoch (UTC): 30 August 2014 15:52:09
Eccentricity: 0.0058105
inclination: 98.0786°
perigee height: 717 km
apogee height: 800 km
right ascension of ascending node: 76.3278°
argument of perigee: 109.4528°
revolutions per day: 14.39913454
mean anomaly at epoch: 251.2951°
orbit number at epoch: 57608

The dashed part of the orbit path shows where the satellite is in the earth's shadow,  

DLR